Location: Asheville, NC
(35.6000°N, 82.5500°W)
Time: 01:02:45
(UTC-04:00)

Vanguard 2 Rocket - Pass Details

Date: 09 December 2017
Orbit: 553 x 3328 km, 32.9° (Epoch: 23 June)

Event Time Altitude Azimuth Distance (km) Brightness Sun altitude
Rises 21:27:04 0° 249° (WSW) 5,685 11.5 -50.0°
Reaches altitude 10° 21:30:15 10° 248° (WSW) 4,981 11.0 -50.6°
Enters shadow 21:42:17 63° 226° (SW) 3,233 9.4 -53.0°
